Date String (YYYY-MM-DD hh:mm:ss) UTC,Instrument flags,absolute air pressure of the measurement (hPa),sample flow rate (lpm),inlet stack bypass flow (lpm),air temperature of the measurement (°C),ambient temperature measured by the external sensor (°C),aerosol sample conditioner tube jacket temperature (°C),OPC LED temperature (°C),internal box temperature (°C),relative humidity of the measurement (%),span deviation,mass concentration of particles derived from Lorenz-Mie calculation of OPC scattering (μg/m³),mass concentration of particles derived from Lorenz-Mie calculation of OPC scattering (μg/m³),mass concentration of particles derived from Lorenz-Mie calculation of OPC scattering (μg/m³)
DateTimeUTC,F1_M11,P_M11,Q1_M11,Q2_M11,T1_M11,T2_M11,T3_M11,T4_M11,T5_M11,U1_M11,ZSPAN_M11,X0_M11,X2_M11,X1_M11
2023-11-10 00:00:00,SystemResetWarning,0834.0,4.99,000.00,026.3,025.4,000.0,034.6,027.6,9.3,0000.0,0008.47,0004.28,0003.69
2023-11-10 00:01:00,SystemResetWarning,0833.9,5.00,000.00,026.3,025.4,000.0,034.6,027.6,9.3,0000.0,0008.37,0004.27,0003.68
2023-11-10 00:02:00,SystemResetWarning,0833.9,4.99,000.00,026.3,025.4,000.0,034.6,027.6,9.4,0000.0,0008.35,0004.28,0003.68
2023-11-10 00:03:00,SystemResetWarning,0834.0,5.00,000.00,026.3,025.4,000.0,034.6,027.6,9.4,0000.0,0008.35,0004.28,0003.69
2023-11-10 00:04:00,SystemResetWarning,0834.0,5.01,000.00,026.3,025.4,000.0,034.6,027.6,9.4,0000.0,0008.39,0004.28,0003.69
2023-11-10 00:05:00,SystemResetWarning,0834.0,5.00,000.00,026.3,025.4,000.0,034.6,027.6,9.4,0000.0,0008.33,0004.24,0003.69
2023-11-10 00:06:00,SystemResetWarning,0834.0,5.01,000.00,026.3,025.4,000.0,034.6,027.7,9.4,0000.0,0008.18,0004.27,0003.70
2023-11-10 00:07:00,SystemResetWarning,0834.0,5.00,000.00,026.3,025.4,000.0,034.6,027.7,9.4,0000.0,0008.06,0004.25,0003.70
2023-11-10 00:08:00,SystemResetWarning,0834.0,5.00,000.00,026.3,025.4,000.0,034.6,027.7,9.4,0000.0,0008.59,0004.23,0003.70
2023-11-10 00:09:00,SystemResetWarning,0834.1,5.00,000.00,026.3,025.4,000.0,034.6,027.7,9.3,0000.0,0009.26,0004.21,0003.69
2023-11-10 00:10:00,SystemResetWarning,0834.0,4.99,000.00,026.3,025.4,000.0,034.6,027.7,9.3,0000.0,0009.58,0004.21,0003.68
2023-11-10 00:11:00,SystemResetWarning,0834.1,5.00,000.00,026.3,025.4,000.0,034.6,027.8,9.3,0000.0,0009.58,0004.23,0003.68
2023-11-10 00:12:00,SystemResetWarning,0834.1,5.01,000.00,026.3,025.4,000.0,034.6,027.8,9.2,0000.0,0009.65,0004.26,0003.68
2023-11-10 00:13:00,SystemResetWarning,0834.1,5.01,000.00,026.3,025.4,000.0,034.6,027.8,9.2,0000.0,0009.66,0004.25,0003.68
2023-11-10 00:14:00,SystemResetWarning,0834.1,4.99,000.00,026.4,025.4,000.0,034.6,027.8,9.2,0000.0,0009.98,0004.25,0003.68
2023-11-10 00:15:00,SystemResetWarning,0834.2,4.99,000.00,026.4,025.4,000.0,034.6,027.8,9.2,0000.0,0009.94,0004.25,0003.68
2023-11-10 00:16:00,SystemResetWarning,0834.2,4.99,000.00,026.4,025.4,000.0,034.6,027.9,9.1,0000.0,0009.96,0004.27,0003.69
2023-11-10 00:17:00,SystemResetWarning,0834.2,5.01,000.00,026.4,025.4,000.0,034.6,027.8,9.1,0000.0,0010.40,0004.23,0003.68
2023-11-10 00:18:00,SystemResetWarning,0834.3,5.00,000.00,026.4,025.4,000.0,034.6,027.8,9.1,0000.0,0011.02,0004.26,0003.68
2023-11-10 00:19:00,SystemResetWarning,0834.4,5.01,000.00,026.4,025.4,000.0,034.7,027.8,9.1,0000.0,0010.75,0004.25,0003.69
2023-11-10 00:20:00,SystemResetWarning,0834.5,5.01,000.00,026.4,025.4,000.0,034.7,027.8,9.1,0000.0,0010.21,0004.29,0003.71
2023-11-10 00:21:00,SystemResetWarning,0834.4,5.00,000.00,026.4,025.4,000.0,034.7,027.8,9.1,0000.0,0009.78,0004.34,0003.75
2023-11-10 00:22:00,SystemResetWarning,0834.2,5.00,000.00,026.4,025.4,000.0,034.7,027.8,9.1,0000.0,0009.78,0004.37,0003.78
2023-11-10 00:23:00,SystemResetWarning,0834.5,4.99,000.00,026.4,025.5,000.0,034.7,027.8,9.2,0000.0,0010.24,0004.39,0003.82
2023-11-10 00:24:00,SystemResetWarning,0834.5,5.01,000.00,026.4,025.5,000.0,034.7,027.8,9.3,0000.0,0010.36,0004.43,0003.85
2023-11-10 00:25:00,SystemResetWarning,0834.6,5.01,000.00,026.4,025.5,000.0,034.7,027.8,9.4,0000.0,0010.95,0004.47,0003.88
2023-11-10 00:26:00,SystemResetWarning,0834.4,5.00,000.00,026.4,025.4,000.0,034.7,027.8,9.4,0000.0,0011.23,0004.51,0003.90
2023-11-10 00:27:00,SystemResetWarning,0834.3,4.99,000.00,026.4,025.4,000.0,034.7,027.8,9.5,0000.0,0011.21,0004.51,0003.92
2023-11-10 00:28:00,SystemResetWarning,0834.3,5.00,000.00,026.4,025.4,000.0,034.7,027.8,9.5,0000.0,0010.45,0004.53,0003.92
2023-11-10 00:29:00,SystemResetWarning,0834.3,5.00,000.00,026.4,025.4,000.0,034.7,027.8,9.8,0000.0,0009.73,0004.52,0003.93
2023-11-10 00:30:00,SystemResetWarning,0834.3,5.01,000.00,026.4,025.4,000.0,034.7,027.8,10.1,0000.0,0009.62,0004.54,0003.93
2023-11-10 00:31:00,SystemResetWarning,0834.3,5.01,000.00,026.4,025.4,000.0,034.7,027.8,10.0,0000.0,0009.94,0004.52,0003.93
2023-11-10 00:32:00,SystemResetWarning,0834.3,5.01,000.00,026.4,025.4,000.0,034.7,027.8,9.7,0000.0,0010.04,0004.48,0003.92
2023-11-10 00:33:00,SystemResetWarning,0834.3,5.00,000.00,026.4,025.4,000.0,034.7,027.7,9.7,0000.0,0010.19,0004.45,0003.90
2023-11-10 00:34:00,SystemResetWarning,0834.3,4.99,000.00,026.4,025.4,000.0,034.7,027.8,9.5,0000.0,0010.08,0004.44,0003.88
2023-11-10 00:35:00,SystemResetWarning,0834.4,5.00,000.00,026.3,025.3,000.0,034.7,027.7,9.4,0000.0,0010.06,0004.46,0003.86
2023-11-10 00:36:00,SystemResetWarning,0834.3,5.00,000.00,026.3,025.3,000.0,034.7,027.7,9.8,0000.0,0009.42,0004.43,0003.87
2023-11-10 00:37:00,SystemResetWarning,0834.4,5.01,000.00,026.3,025.3,000.0,034.7,027.7,10.3,0000.0,0009.43,0004.43,0003.87
2023-11-10 00:38:00,SystemResetWarning,0834.4,5.01,000.00,026.3,025.3,000.0,034.7,027.7,10.4,0000.0,0010.14,0004.44,0003.88
2023-11-10 00:39:00,SystemResetWarning,0834.5,4.99,000.00,026.3,025.3,000.0,034.7,027.7,9.8,0000.0,0010.16,0004.47,0003.89
2023-11-10 00:40:00,SystemResetWarning,0834.5,4.99,000.00,026.3,025.3,000.0,034.7,027.7,10.1,0000.0,0010.82,0004.50,0003.89
2023-11-10 00:41:00,SystemResetWarning,0834.5,4.99,000.00,026.3,025.2,000.0,034.7,027.7,9.8,0000.0,0011.65,0004.51,0003.89
2023-11-10 00:42:00,SystemResetWarning,0834.5,5.00,000.00,026.3,025.2,000.0,034.7,027.7,9.9,0000.0,0011.74,0004.52,0003.90
2023-11-10 00:43:00,SystemResetWarning,0834.5,5.00,000.00,026.3,025.2,000.0,034.7,027.7,9.8,0000.0,0011.73,0004.58,0003.91
2023-11-10 00:44:00,SystemResetWarning,0835.0,5.00,000.00,026.3,025.2,000.0,034.7,027.7,10.3,0000.0,0012.22,0004.60,0003.91
2023-11-10 00:45:00,SystemResetWarning,0834.9,5.00,000.00,026.3,025.2,000.0,034.7,027.7,10.4,0000.0,0012.25,0004.58,0003.92
2023-11-10 00:46:00,SystemResetWarning,0834.8,5.00,000.00,026.3,025.3,000.0,034.7,027.7,9.8,0000.0,0012.12,0004.58,0003.92
2023-11-10 00:47:00,SystemResetWarning,0834.7,5.00,000.00,026.3,025.3,000.0,034.7,027.7,9.2,0000.0,0013.36,0004.61,0003.93
2023-11-10 00:48:00,SystemResetWarning,0834.9,5.01,000.00,026.3,025.3,000.0,034.7,027.7,9.0,0000.0,0013.69,0004.60,0003.91
2023-11-10 00:49:00,SystemResetWarning,0835.1,5.01,000.00,026.3,025.3,000.0,034.7,027.7,8.8,0000.0,0013.30,0004.56,0003.92
2023-11-10 00:50:00,SystemResetWarning,0834.6,4.99,000.00,026.3,025.3,000.0,034.7,027.7,8.7,0000.0,0013.80,0004.59,0003.91
2023-11-10 00:51:00,SystemResetWarning,0834.6,4.99,000.00,026.3,025.3,000.0,034.7,027.8,8.6,0000.0,0013.39,0004.58,0003.89
2023-11-10 00:52:00,SystemResetWarning,0834.7,4.99,000.00,026.3,025.3,000.0,034.7,027.8,8.5,0000.0,0013.13,0004.61,0003.88
2023-11-10 00:53:00,SystemResetWarning,0834.6,5.00,000.00,026.3,025.3,000.0,034.7,027.8,8.5,0000.0,0012.67,0004.65,0003.86
2023-11-10 00:54:00,SystemResetWarning,0834.6,5.00,000.00,026.3,025.3,000.0,034.7,027.8,8.5,0000.0,0012.63,0004.62,0003.84
2023-11-10 00:55:00,SystemResetWarning,0834.6,5.00,000.00,026.3,025.3,000.0,034.7,027.8,8.5,0000.0,0012.03,0004.58,0003.83
2023-11-10 00:56:00,SystemResetWarning,0834.7,5.01,000.00,026.3,025.3,000.0,034.7,027.8,8.4,0000.0,0011.58,0004.59,0003.81
2023-11-10 00:57:00,SystemResetWarning,0834.7,5.00,000.00,026.3,025.3,000.0,034.7,027.8,8.4,0000.0,0012.20,0004.58,0003.81
2023-11-10 00:58:00,SystemResetWarning,0834.8,4.99,000.00,026.3,025.3,000.0,034.7,027.8,8.4,0000.0,0011.63,0004.54,0003.79
2023-11-10 00:59:00,SystemResetWarning,0834.6,4.99,000.00,026.3,025.4,000.0,034.7,027.8,8.3,0000.0,0011.28,0004.61,0003.79
